Monticello, AR

4:56 AM CST on December 03, 2016 (GMT -0600)
Monticello Municipal-Ellis

Weather History for KLLQ - December, 2013

Change the Weather History Date:

Sunday, December 1, 2013

  Actual Average Record
Temperature  
Mean Temperature 54 °F -  
Max Temperature 61 °F 57 °F 77 °F (1950)
Min Temperature 48 °F 36 °F 18 °F (1964)
Degree Days  
Heating Degree Days 10    
Growing Degree Days 4 (Base 50)    
Moisture  
Dew Point 43 °F    
Average Humidity 64    
Maximum Humidity 80    
Minimum Humidity 45    
Precipitation  
Precipitation 0.00 in - - ()
Sea Level Pressure  
Sea Level Pressure 30.09 in    
Wind  
Wind Speed 4 mph (SSW)    
Max Wind Speed 8 mph    
Max Gust Speed -    
Visibility 10 miles    
Events      
Averages and records for this station are not official NWS values.
T = Trace of Precipitation, MM = Missing Value Source: NWS Daily Summary

Daily Weather History Graph

Daily Weather History Graph

Search for Another Location

Airport or City:

Trip Planner

Search our weather history database for the weather conditions in past years. The results will help you decide how hot, cold, wet, or windy it might be!

Date:

Astronomy

Dec. 01, 2013 Rise Set
Actual Time 6:53 AM CST 4:58 PM CST
Civil Twilight 6:26 AM CST 5:25 PM CST
Nautical Twilight 5:55 AM CST 5:56 PM CST
Astronomical Twilight 5:25 AM CST 6:26 PM CST
Moon 5:15 AM CST (12/1) 4:05 PM CST (12/1)
Length of Visible Light 10h 59m
Length of Day
10h 04m
Waning Crescent, 2% of the Moon is Illuminated
Dec 1
Waning Crescent
Dec 2
New
Dec 9
First Quarter
Dec 17
Full
Dec 25
Last Quarter

Hourly Weather History & Observations

Time (CST) Temp. Dew Point Humidity Pressure Visibility Wind Dir Wind Speed Gust Speed Precip Events Conditions
12:53 AM 53.1 °F 32.0 °F 45% 30.21 in 10.0 mi SSW 6.9 mph - N/A   Overcast
1:53 AM 53.1 °F 33.1 °F 47% 30.21 in 10.0 mi SW 6.9 mph - N/A   Mostly Cloudy
2:53 AM 52.0 °F 35.1 °F 53% 30.19 in 10.0 mi SW 5.8 mph - N/A   Mostly Cloudy
3:53 AM 52.0 °F 35.1 °F 53% 30.19 in 10.0 mi Calm Calm - N/A   Overcast
4:53 AM 48.9 °F 37.0 °F 64% 30.19 in 10.0 mi Calm Calm - N/A   Overcast
5:53 AM 48.9 °F 39.0 °F 69% 30.19 in 10.0 mi Calm Calm - N/A   Overcast
6:53 AM 52.0 °F 37.0 °F 57% 30.19 in 10.0 mi WSW 4.6 mph - N/A   Overcast
7:53 AM 50.0 °F 42.1 °F 74% 30.19 in 10.0 mi Calm Calm - 0.00 in   Overcast
8:53 AM 50.0 °F 41.0 °F 71% 30.19 in 10.0 mi Calm Calm - 0.00 in   Overcast
9:53 AM 52.0 °F 42.1 °F 69% 30.18 in 10.0 mi Calm Calm - N/A   Overcast
10:53 AM 57.0 °F 41.0 °F 55% 30.16 in 10.0 mi SSW 5.8 mph - N/A   Overcast
11:53 AM 57.9 °F 41.0 °F 53% 30.12 in 10.0 mi SSW 8.1 mph - N/A   Overcast
12:53 PM 57.9 °F 43.0 °F 58% 30.08 in 10.0 mi SSW 6.9 mph - N/A   Mostly Cloudy
1:53 PM 57.9 °F 45.0 °F 62% 30.05 in 10.0 mi South 4.6 mph - 0.00 in   Overcast
2:03 PM 59.0 °F 44.6 °F 59% 30.05 in 10.0 mi Variable 3.5 mph - N/A   Overcast
2:33 PM 60.8 °F 46.4 °F 59% 30.04 in 10.0 mi South 4.6 mph - N/A   Overcast
2:53 PM 61.0 °F 46.0 °F 58% 30.03 in 10.0 mi SSW 4.6 mph - N/A   Overcast
3:53 PM 61.0 °F 48.0 °F 62% 30.01 in 10.0 mi South 6.9 mph - N/A   Clear
4:53 PM 59.0 °F 48.0 °F 67% 30.01 in 10.0 mi SSW 3.5 mph - N/A   Mostly Cloudy
5:53 PM 57.0 °F 48.0 °F 72% 30.01 in 10.0 mi Calm Calm - N/A   Overcast
6:53 PM 57.0 °F 48.0 °F 72% 30.00 in 10.0 mi Calm Calm - 0.00 in   Overcast
7:53 PM 55.9 °F 48.9 °F 77% 29.98 in 10.0 mi Calm Calm - 0.00 in   Overcast
8:53 PM 55.0 °F 48.9 °F 80% 29.98 in 10.0 mi Calm Calm - N/A   Overcast
9:53 PM 55.0 °F 48.0 °F 77% 29.96 in 10.0 mi Calm Calm - N/A   Overcast
10:53 PM 57.0 °F 48.0 °F 72% 29.95 in 10.0 mi SW 4.6 mph - N/A   Mostly Cloudy
11:53 PM 57.0 °F 48.9 °F 74% 29.93 in 10.0 mi SW 4.6 mph - N/A   Mostly Cloudy